User: anonymous   Login
Location: Unspecified
(0.0000°N, 0.0000°E)
Time: 13:21:56
(UTC+00:00)
Language:

LightSail 2 - Orbit

View from above orbital plane
View from above orbital plane
View from above satellite
View from above satellite

Ground track
Ground track

The orbit data is extracted from the following two-line orbital elements,

1 44420U 19036AC  19233.13987187  .00003675  00000-0  82631-3 0  9999
2 44420  24.0067 207.2955 0022081  93.7622 266.5265 14.52729255  6401
Epoch (UTC): 21 August 2019 03:21:24
Eccentricity: 0.0022081
inclination: 24.0067°
perigee height: 701 km
apogee height: 732 km
right ascension of ascending node: 207.2955°
argument of perigee: 93.7622°
revolutions per day: 14.52729255
mean anomaly at epoch: 266.5265°
orbit number at epoch: 640

The dashed part of the orbit path shows where the satellite is in the earth's shadow,  

DLR